Location: Diati
(11.8376°N, 2.5966°E)
Time: 18:18:51
(UTC+00:00)

Okean O Rocket - Pass Details

Date: 21 September 2020
Orbit: 622 x 645 km, 98.2° (Epoch: 19 October)

Event Time Altitude Azimuth Distance (km) Brightness Sun altitude
Rises 18:03:24 0° 187° (S) 2,939 5.1 -5.1°
Reaches altitude 10° 18:05:47 10° 197° (SSW) 2,033 4.4 -5.6°
Maximum altitude 18:09:43 31° 259° (W) 1,115 3.8 -6.6°
Drops below altitude 10° 18:13:40 10° 322° (NW) 2,037 4.8 -7.6°
Sets 18:16:04 0° 333° (NNW) 2,946 5.5 -8.2°
